Weather Roundup
Issued by NWS

Home | Current Version | Previous Version | Graphics & Text | Print | Product List | Glossary On
Versions: 1 2 3 4 5 6 7 8 9 10 11 12 13 14 15 16 17 18 19 20 21 22 23 24 25 26 27 28 29 30 31 32 33 34 35 36 37 38 39 40 41 42 43 44 45 46 47 48 49 50
000
NZUS93 KARX 290010
HRRWXR

CURRENT HOURLY OBSERVATIONS ACROSS
MUCH OF THE UPPER MISSISSIPPI VALLEY
NATIONAL WEATHER SERVICE LA CROSSE WI
700 PM CDT TUE MAR 28 2017


...SOUTHEAST MINNESOTA...


CITY           SKY/WX    TMP DP  RH WIND       PRES   REMARKS
ROCHESTER      CLEAR     53  37  54 E7        30.14R
ROCHESTER/MAYO FAIR      56  36  46 E5        30.14S
WINONA         CLEAR     57  37  47 CALM      30.14S
AUSTIN         CLEAR     55  37  50 E8        30.13R
ALBERT LEA     CLEAR     55  36  47 E9        30.13R
DODGE CENTER   CLEAR     55  39  54 NE8       30.14R
PRESTON        CLEAR     55  34  44 E7        30.14S
OWATONNA       CLEAR     57  34  41 E7        30.14R
FARIBAULT      CLEAR     57  37  47 E7        30.13S
$$

...ELSEWHERE IN MINNESOTA...


CITY           SKY/WX    TMP DP  RH WIND       PRES   REMARKS
MINNEAPOLIS    PTCLDY    61  28  28 E6        30.13R
INTNL FALLS    CLEAR     50  26  39 NE6       30.18F
DULUTH         PTCLDY    51  31  46 SE9       30.15R
RED WING       CLEAR     57  27  30 E5        30.13R
REDWOOD FALLS  CLEAR     60  31  33 NE6       30.12R
MANKATO        CLEAR     57  34  41 E8        30.13R
WORTHINGTON    PTCLDY    54  38  54 E12       30.12R
FAIRMONT       CLEAR     55  39  54 E9        30.13R
$$

...SOUTHWEST WISCONSIN...


CITY           SKY/WX    TMP DP  RH WIND       PRES   REMARKS
LA CROSSE      CLEAR     59  38  45 NW5       30.13S
PRAIRIE DU CHI CLEAR     54  38  54 CALM      30.14R
BOSCOBEL       CLEAR     58  37  45 VRB3      30.14S
LONE ROCK      CLEAR     55  38  52 E6        30.14S
PLATTEVILLE    CLEAR     52  43  72 CALM      30.14S
FORT MC COY    CLEAR     57  35  43 E5        30.16R
CAMP DOUGLAS   PTCLDY    57  34  41 E3        30.14R
MAUSTON-NEW LI CLEAR     58  35  42 E3        30.14S
VIROQUA        FAIR      55  35  47 CALM      30.14S
WIS DELLS      CLEAR     54  34  46 E5        30.16R
$$

...ELSEWHERE IN WISCONSIN...


CITY           SKY/WX    TMP DP  RH WIND       PRES   REMARKS
MILWAUKEE      FOG       35  33  92 N8        30.19S VSB 1/4 WCI  29
MADISON        PTCLDY    52  36  54 NE8       30.15R
GREEN BAY      CLEAR     47  39  74 NE7       30.20R
EAU CLAIRE     PTCLDY    58  23  26 E7        30.14R
BLACK RVR FLS  FAIR      59  26  28 E6        30.14R
MEDFORD        CLEAR     52  35  52 S5        30.16R
WAUSAU         CLEAR     56  27  32 NE3       30.14R
WIS RAPIDS     CLEAR     56  27  32 SE10      30.17R
MARSHFIELD     CLEAR     54  32  43 NE3       30.15R
RICE LAKE      CLEAR     58  24  26 CALM      30.16R
$$

...NORTHEAST IOWA...


CITY           SKY/WX    TMP DP  RH WIND       PRES   REMARKS
WATERLOO       CLEAR     54  37  52 E10       30.12R
DUBUQUE        CLEAR     48  39  71 E3        30.15R
DECORAH        CLEAR     55  37  50 E8        30.12S
MASON CITY     CLEAR     55  37  50 E9        30.12S
CHARLES CITY   CLEAR     55  36  47 E13       30.13R
OELWEIN        CLEAR     54  39  58 E12       30.14R
$$

...ELSEWHERE IN IOWA...


CITY           SKY/WX    TMP DP  RH WIND       PRES   REMARKS
DES MOINES     CLOUDY    52  42  69 NE9       30.10S
IOWA CITY      CLOUDY    52  43  71 E8        30.15R
FORT DODGE     PTCLDY    54  41  62 SE5       30.12R
MARSHALLTOWN   CLEAR     50  43  77 SE8       30.11S
CEDAR RAPIDS   CLOUDY    50  43  77 E9        30.12R
$$

...NORTHERN ILLINOIS...


CITY           SKY/WX    TMP DP  RH WIND       PRES   REMARKS
CHICAGO-OHARE  MOCLDY    43  36  76 NE9       30.17R
CHICAGO-MIDWAY MOCLDY    43  37  79 NE9       30.17R
MOLINE         CLOUDY    50  40  68 E14       30.14R
ROCKFORD       PTCLDY    53  39  59 SE8       30.16R
PEORIA         CLOUDY    50  43  77 NE8       30.14R
$$

NOTE: "FAIR" INDICATES FEW OR NO CLOUDS BELOW 12,000 FEET WITH NO
SIGNIFICANT WEATHER AND/OR OBSTRUCTIONS TO VISIBILITY. WIND
SPEEDS ARE IN MILES-PER-HOUR.




USA.gov is the U.S. government's official web portal to all federal, state and local government web resources and services.